Theta_e
316 316 315 315 315 315 314 315 315 316 317 318 318 318 318 318 316 307 301 310 311 327 325 307 306 304 302 298 294 290 284 280 284 284 288 293 290 296 299 298 298 300 301 306 334
316 316 315 315 315 315 314 315 315 316 318 318 318 318 318 318 305 303 317 326 324 326 308 305 303 303 295 292 292 287 282 284 288 289 288 291 289 293 294 295 295 299 302 306 321
316 316 315 315 315 315 315 315 316 317 317 317 318 319 319 314 300 299 326 327 326 320 309 307 302 297 292 291 291 286 285 288 291 292 291 292 292 293 292 290 294 295 298 301 316
317 317 315 315 314 314 315 315 316 316 317 317 319 320 319 307 291 304 325 327 325 318 309 302 299 293 291 290 291 288 293 291 294 295 293 292 293 293 292 294 298 299 300 300 308
317 316 315 315 315 315 315 315 315 315 316 316 319 319 309 301 302 313 327 323 318 311 304 299 296 294 289 290 292 288 290 294 295 295 293 294 293 293 294 298 299 299 300 300 300
316 316 315 314 314 315 315 315 315 315 315 316 320 319 303 293 307 313 316 313 311 306 302 299 297 297 292 291 291 293 293 294 294 294 293 293 294 293 296 299 298 298 297 298 299
316 316 315 315 314 315 315 315 315 315 315 317 319 313 300 298 309 310 313 306 306 307 302 302 301 298 296 293 294 294 291 291 291 291 292 292 291 291 297 297 296 297 298 298 299
316 315 315 315 315 314 315 315 314 315 316 318 319 308 297 306 310 307 309 308 310 307 304 305 302 298 295 296 295 291 287 284 291 294 295 291 286 295 301 296 299 298 298 299 298
316 315 315 314 316 315 314 313 315 316 316 318 307 303 296 314 308 308 309 306 305 304 303 308 301 296 295 289 286 287 284 285 289 294 294 291 290 296 301 300 297 296 297 298 298
316 314 314 314 315 314 312 312 315 315 315 317 312 296 299 300 307 308 307 308 304 302 300 297 294 290 288 286 282 285 284 287 287 292 294 292 292 297 298 297 298 298 297 296 297
315 314 314 314 315 313 306 300 297 295 300 296 297 299 302 307 307 305 306 304 302 297 290 292 288 286 289 290 292 290 287 287 291 294 291 292 292 295 297 296 295 296 296 296 296
315 314 314 314 313 312 301 299 299 299 294 300 301 303 306 306 299 303 305 298 296 290 292 289 286 292 293 292 290 289 287 286 291 293 291 290 290 295 297 296 297 298 297 298 296
314 314 314 313 312 303 301 301 304 301 293 298 302 301 302 301 298 299 302 298 294 290 290 285 289 295 293 291 289 289 287 287 287 291 292 290 289 293 296 297 298 298 299 299 298
313 314 313 311 302 298 298 302 302 304 286 292 294 298 300 297 296 304 304 298 293 290 290 289 292 293 291 289 290 285 292 292 291 288 283 291 282 290 292 294 295 297 296 299 300
313 314 312 311 298 298 301 302 302 301 279 294 294 300 299 295 296 300 305 299 291 291 292 289 290 290 289 290 293 289 296 294 290 286 283 285 282 287 290 289 291 294 297 298 300
312 313 311 303 298 301 303 301 302 287 280 290 293 294 292 294 296 298 298 299 298 294 294 292 296 293 291 297 297 295 289 288 285 283 278 283 283 283 286 290 292 295 297 299 299
312 312 308 305 300 299 302 301 288 281 293 290 290 292 290 290 292 294 293 289 285 281 283 289 290 293 298 290 291 289 284 279 270 277 275 285 281 286 291 294 295 294 296 297 298
310 308 306 307 305 304 299 292 282 289 290 295 294 292 288 291 291 292 290 285 289 289 280 281 281 289 295 291 288 286 287 280 268 269 274 283 277 283 293 297 297 297 297 298 298
307 303 305 309 306 302 296 284 284 289 295 294 293 287 286 290 289 288 286 286 289 292 281 283 284 293 294 295 293 287 283 289 283 279 278 280 283 289 292 293 294 295 297 297 297
298 299 303 309 303 301 292 288 290 297 299 297 287 289 285 287 286 285 285 291 291 295 294 288 283 290 293 294 295 290 292 281 285 274 273 278 279 282 287 289 292 294 293 295 297
298 298 305 308 304 297 288 289 294 301 302 296 291 288 287 285 286 284 286 291 293 293 294 288 285 286 290 288 285 287 285 287 286 282 277 276 278 287 288 290 290 293 294 295 297
295 292 305 305 294 290 289 294 299 300 302 299 295 291 288 288 285 284 285 288 295 293 287 289 286 284 286 293 294 290 288 287 282 280 283 282 281 293 294 291 293 295 297 298 298
292 293 305 302 287 287 293 296 299 298 298 297 294 294 293 286 287 286 288 294 295 292 287 288 286 281 281 284 290 289 290 289 288 287 281 278 280 292 294 294 295 295 296 295 295
295 291 295 296 294 289 289 291 293 300 299 298 296 294 293 292 293 289 290 293 294 294 300 297 289 285 280 283 288 285 287 289 288 282 281 282 283 288 291 292 291 292 295 296 293
295 291 293 287 290 290 289 291 292 292 299 299 296 295 293 289 290 287 288 291 295 296 292 291 286 288 286 288 287 286 287 287 285 285 282 284 285 288 291 290 291 293 294 294 293
293 292 293 291 291 289 290 289 292 293 295 292 294 294 294 291 291 288 289 291 288 288 290 292 286 287 283 288 287 285 287 287 287 288 287 287 286 290 292 291 291 292 293 291 291
298 297 298 291 289 290 288 290 292 294 295 297 293 293 292 293 295 295 296 295 293 288 285 290 287 285 281 285 284 279 284 286 285 287 284 280 285 289 288 289 289 291 291 290 291
Wind_Speed
18 17 15 14 12 11 11 10 10 11 12 13 14 12 12 12 11 1 2 3 2 10 9 4 4 6 4 4 4 4 6 0 3 2 5 5 5 4 3 6 3 5 2 3 4
20 18 16 15 13 12 11 11 11 11 12 13 14 13 12 11 2 2 4 2 3 8 6 8 7 7 5 4 4 6 4 6 5 3 5 7 4 7 4 6 4 6 6 3 2
21 19 17 16 14 12 11 10 10 11 12 12 13 12 12 3 2 3 1 1 3 7 3 1 1 4 5 3 4 0 4 3 5 4 1 5 7 3 4 5 9 7 5 6 2
22 20 18 16 14 13 11 11 11 12 12 12 14 12 10 1 4 3 2 2 2 4 4 3 6 4 3 3 2 1 7 4 6 4 5 4 4 8 5 9 8 7 5 4 4
22 22 19 17 15 13 12 11 11 11 12 12 13 11 2 4 0 3 3 1 2 1 3 3 5 2 2 2 4 2 2 5 8 10 7 6 9 8 9 11 10 10 7 6 8
24 22 20 18 16 14 13 12 10 9 10 10 11 10 1 5 2 2 4 1 3 2 1 2 1 1 1 3 2 4 6 8 8 12 6 7 8 7 10 8 8 8 10 10 9
24 23 22 19 17 16 13 10 10 9 8 8 8 3 2 4 2 2 5 3 2 2 4 3 2 2 2 7 2 4 7 7 3 2 6 3 7 6 9 6 8 9 8 9 11
25 25 22 20 18 17 15 13 12 7 5 4 4 1 2 2 2 2 3 6 6 6 4 7 2 2 3 2 7 6 3 6 6 5 5 0 10 8 16 5 15 10 7 7 9
26 25 24 22 19 18 15 15 5 2 3 3 1 2 2 4 3 2 5 6 1 1 4 1 4 3 2 2 5 4 8 6 9 5 4 2 12 11 16 20 12 9 8 7 9
25 26 25 22 19 17 16 3 2 5 1 1 1 3 3 5 3 4 5 4 5 3 6 4 5 1 3 4 9 12 8 9 12 4 8 15 17 20 7 10 14 11 9 6 7
29 27 25 20 18 15 6 1 7 5 4 0 5 3 5 8 1 5 5 2 1 1 3 2 2 7 13 14 16 10 9 15 14 13 6 16 17 25 9 9 12 10 10 8 9
29 29 26 20 16 8 1 5 3 3 7 1 3 5 5 2 3 8 6 6 2 2 4 4 6 13 7 8 10 12 13 17 16 13 7 12 18 26 15 12 13 15 12 10 7
29 28 24 19 9 2 2 2 3 3 2 7 4 3 5 3 2 4 6 5 1 3 8 5 8 5 10 13 14 14 10 15 14 4 6 7 23 23 16 16 14 13 13 9 10
28 27 24 21 3 2 1 1 4 3 5 5 3 2 6 4 3 1 4 1 3 7 4 6 5 8 12 11 9 10 4 6 6 4 7 4 18 20 9 17 14 11 10 13 12
30 28 21 10 1 1 3 6 2 5 2 6 4 2 6 4 3 3 2 3 5 6 2 9 6 16 16 6 3 7 4 6 7 11 6 7 8 10 3 8 10 10 14 12 10
34 29 17 0 1 4 6 4 4 7 3 5 3 7 5 3 4 4 3 3 2 2 3 10 5 5 7 4 3 2 4 13 5 2 7 12 13 8 5 7 6 7 9 9 8
35 28 8 1 3 3 4 5 7 4 5 6 5 6 3 5 4 3 4 8 1 6 5 9 5 6 4 3 3 6 6 4 6 3 7 2 5 13 10 12 9 10 8 6 7
34 19 3 3 5 4 4 7 4 1 5 6 7 6 4 4 5 3 5 5 3 3 3 4 16 2 1 5 8 7 6 3 6 4 5 6 8 8 10 13 9 7 6 3 7
24 5 4 8 4 2 7 6 6 2 4 6 9 2 3 2 5 6 3 4 5 7 1 6 11 11 15 20 4 1 4 1 5 7 8 6 6 10 14 13 10 9 5 6 7
4 4 5 11 4 6 7 4 3 3 5 3 3 1 7 8 4 6 4 6 3 6 4 6 21 3 1 3 7 8 4 1 3 4 7 5 5 11 7 9 6 5 7 7 5
4 5 5 11 4 7 4 4 5 5 3 3 4 5 5 6 3 4 7 7 1 3 7 4 6 10 8 4 4 1 3 5 3 4 4 5 6 8 8 8 5 6 6 6 7
4 4 5 6 7 3 2 4 5 4 4 5 2 2 3 6 5 5 6 6 6 1 7 5 5 9 16 20 10 6 6 5 4 3 5 5 10 8 18 3 3 4 7 6 4
3 3 5 5 5 4 6 6 5 6 5 4 3 2 3 3 8 4 7 7 5 4 6 3 3 9 6 1 2 2 5 8 10 6 17 16 8 2 1 6 7 12 6 5 8
3 6 5 6 1 3 4 4 6 6 5 6 8 3 4 10 9 10 21 10 3 8 22 8 4 8 12 14 14 20 19 15 15 10 15 19 31 17 19 19 13 16 17 12 8
4 2 1 5 3 3 2 4 5 8 3 7 4 2 13 12 20 9 5 17 13 9 2 3 8 10 13 19 21 25 25 24 23 24 21 25 26 20 15 13 16 15 14 13 11
3 4 4 5 3 2 2 4 4 8 6 9 4 17 15 13 16 26 16 17 10 2 3 3 6 6 13 21 18 24 21 18 22 25 26 28 24 12 15 10 15 16 11 10 12
3 2 1 4 3 3 3 4 7 15 9 6 13 16 15 16 11 19 23 23 18 10 3 4 4 5 18 10 18 10 4 1 4 5 7 14 20 20 24 24 18 17 14 15 18
Wind_Direction
359 356 354 351 347 344 340 336 334 331 325 325 326 331 334 331 324 283 9 226 295 331 337 313 45 14 45 62 43 124 62 205 258 279 253 291 325 286 283 277 309 259 237 267 204
359 356 353 349 345 343 338 335 330 328 326 328 328 330 335 334 332 351 257 286 321 349 27 31 7 1 45 28 28 78 105 227 222 263 293 313 291 265 259 259 253 288 295 311 64
359 356 352 348 344 341 335 328 323 322 324 328 324 329 329 337 50 297 192 231 343 26 17 344 34 55 56 12 2 252 189 211 266 259 324 276 307 247 232 287 227 225 255 290 161
358 355 352 347 342 336 330 325 323 324 323 327 322 330 327 307 92 259 181 173 30 10 3 10 25 53 63 13 304 296 251 225 287 288 321 258 275 300 223 236 244 232 243 269 263
357 356 352 346 340 334 328 324 320 319 318 323 323 333 337 45 303 302 145 62 346 5 21 34 41 102 28 244 314 179 275 291 264 283 255 244 233 229 265 264 267 266 250 247 271
355 354 349 344 337 331 327 321 311 309 310 318 323 326 5 82 290 30 116 356 259 274 283 145 351 247 260 256 145 227 260 263 262 258 256 245 256 145 252 245 259 264 254 255 243
352 350 347 341 333 328 323 315 303 306 304 314 328 349 35 191 39 58 155 215 225 212 295 246 150 88 17 313 258 277 303 335 272 262 274 208 301 220 268 278 262 279 274 262 242
348 347 345 340 332 326 324 318 309 293 275 281 327 346 223 228 329 256 144 284 241 245 240 284 187 189 164 282 352 343 49 352 282 313 284 192 281 285 292 330 310 293 292 282 272
346 344 344 339 332 327 325 320 324 170 197 269 31 44 309 315 297 294 163 241 253 191 230 205 98 188 56 53 351 340 275 262 298 181 282 167 287 279 315 302 282 278 279 280 297
345 345 343 337 330 325 326 289 96 115 42 210 253 30 326 300 342 301 235 241 262 325 328 106 50 108 46 95 265 278 266 258 270 267 286 286 276 275 261 266 271 271 272 251 275
345 344 344 336 329 328 353 47 15 354 50 220 277 247 288 299 245 322 316 92 160 58 258 6 79 241 237 216 248 264 255 261 271 271 270 273 280 279 276 245 265 262 257 248 221
343 343 343 336 332 336 27 64 77 210 320 281 242 272 268 217 325 338 12 22 44 311 314 342 242 255 311 288 265 263 261 264 270 269 219 271 274 278 281 253 241 257 245 242 192
341 342 342 338 339 44 40 44 325 142 111 299 209 252 274 137 151 313 26 343 17 262 281 233 260 318 318 306 287 276 257 270 263 285 249 279 276 285 283 259 257 239 238 239 214
338 341 341 329 58 292 2 346 335 123 61 308 352 281 1 339 13 2 360 293 299 284 284 258 261 311 314 298 272 286 298 308 290 330 277 130 287 286 264 261 244 246 232 235 234
336 339 339 341 204 36 313 321 152 60 3 309 326 312 340 61 258 294 311 356 247 270 82 258 286 312 310 246 302 258 307 275 269 270 286 220 261 273 163 272 256 233 240 241 239
336 336 334 97 34 264 316 315 52 46 288 331 328 329 6 291 274 287 291 20 286 245 224 252 270 233 225 276 265 358 336 316 313 208 249 211 203 271 224 227 252 238 235 247 238
334 331 316 183 285 306 319 52 36 105 6 310 314 320 321 265 286 268 311 320 274 359 309 299 251 268 207 258 320 57 0 299 335 212 237 293 280 257 281 270 250 258 260 252 253
330 328 274 235 291 316 59 51 73 287 275 308 295 287 266 343 263 294 282 294 262 193 324 310 313 225 111 202 289 283 181 218 250 243 267 324 253 260 251 269 290 275 261 294 321
325 342 347 336 315 55 65 58 192 235 303 295 313 298 282 320 274 1 268 247 244 172 185 326 281 297 274 279 208 183 200 208 264 233 266 228 298 290 260 273 278 270 282 318 324
331 354 302 331 343 57 72 227 222 224 317 313 298 299 313 324 332 350 286 246 252 189 185 242 293 268 330 272 220 161 166 256 206 269 261 261 242 238 279 284 299 337 344 314 316
25 28 278 342 39 44 114 242 278 287 9 290 264 283 280 308 274 261 254 290 202 263 191 255 217 277 321 251 204 127 248 225 251 225 269 288 241 222 239 257 285 299 314 320 342
353 22 316 2 51 19 26 304 291 290 6 286 270 245 294 315 277 256 252 247 305 344 282 227 251 278 284 283 303 229 240 204 231 242 240 257 247 264 270 257 174 262 287 315 326
14 282 323 51 69 349 319 308 293 325 319 316 295 39 291 295 331 245 263 273 270 347 269 191 249 297 296 79 200 253 218 212 234 250 246 262 259 73 227 304 326 322 314 315 320
34 355 337 32 96 95 333 283 308 318 296 14 308 355 358 316 272 279 285 294 304 268 282 215 227 238 280 276 295 284 266 254 256 253 276 250 273 277 279 299 330 315 304 312 316
35 328 190 316 339 327 208 270 285 329 281 323 274 280 343 308 308 261 253 293 297 287 52 203 259 255 249 271 282 273 275 272 261 263 259 277 271 272 287 296 297 290 280 286 298
62 24 351 278 290 303 294 263 276 355 308 301 260 322 309 287 274 293 296 293 273 317 177 231 274 267 274 283 275 281 275 264 265 264 265 265 273 272 267 266 282 271 257 266 276
332 330 329 278 308 302 237 278 322 325 280 283 313 298 288 281 264 282 276 273 261 259 226 231 266 275 292 302 304 290 300 264 300 289 278 285 289 295 289 284 275 269 260 265 270